| time (UTC) | temp F | wind direction | speed MPH | gust MPH | rain 1hr in | rain 24hr in | rain mn in | humidity % | barometer mb |
| 20260504020334 | 69 | 131 | 3.0 | 6.0 | 0.00 | 0.00 | 0.00 | 65 | 1018.1 |
| 20260504015339 | 69 | 131 | 3.0 | 6.0 | 0.00 | 0.00 | 0.00 | 65 | 1018.0 |
| 20260504014325 | 69 | 140 | 2.0 | 3.0 | 0.00 | 0.00 | 0.00 | 65 | 1017.9 |
| 20260504013333 | 70 | 140 | 2.0 | 3.0 | 0.00 | 0.00 | 0.00 | 63 | 1017.9 |
| 20260504012340 | 70 | 133 | 2.0 | 5.0 | 0.00 | 0.00 | 0.00 | 62 | 1017.9 |
| 20260504011327 | 71 | 129 | 2.0 | 4.0 | 0.00 | 0.00 | 0.00 | 61 | 1017.7 |
| 20260504010328 | 72 | 130 | 2.0 | 4.0 | 0.00 | 0.00 | 0.00 | 60 | 1017.8 |
| 20260504005337 | 73 | 135 | 3.0 | 5.0 | 0.00 | 0.00 | 0.00 | 57 | 1017.7 |
| 20260504004326 | 74 | 135 | 3.0 | 8.0 | 0.00 | 0.00 | 0.00 | 55 | 1017.7 |
| 20260504003332 | 75 | 146 | 2.0 | 2.0 | 0.00 | 0.00 | 0.00 | 54 | 1017.7 |
| 20260504002338 | 75 | 126 | 0.0 | 1.0 | 0.00 | 0.00 | 0.00 | 53 | 1017.9 |
| 20260504001344 | 76 | 126 | 1.0 | 2.0 | 0.00 | 0.00 | 0.00 | 50 | 1017.8 |
| 20260504000346 | 76 | 126 | 2.0 | 3.0 | 0.00 | 0.00 | 0.00 | 46 | 1017.9 |
| 20260503235331 | 76 | 128 | 2.0 | 5.0 | 0.00 | 0.00 | 0.00 | 44 | 1017.9 |
| 20260503234357 | 77 | 140 | 1.0 | 4.0 | 0.00 | 0.00 | 0.00 | 42 | 1017.9 |
| 20260503233327 | 78 | 150 | 1.0 | 3.0 | 0.00 | 0.00 | 0.00 | 40 | 1018.0 |
| 20260503232352 | 78 | 138 | 1.0 | 6.0 | 0.00 | 0.00 | 0.00 | 41 | 1018.0 |
| 20260503231336 | 78 | 113 | 3.0 | 8.0 | 0.00 | 0.00 | 0.00 | 40 | 1018.1 |
| 20260503230341 | 78 | 147 | 2.0 | 6.0 | 0.00 | 0.00 | 0.00 | 43 | 1018.3 |
| 20260503225328 | 78 | 146 | 2.0 | 5.0 | 0.00 | 0.00 | 0.00 | 45 | 1018.2 |
| 20260503224354 | 78 | 144 | 2.0 | 8.0 | 0.00 | 0.00 | 0.00 | 44 | 1018.4 |
| 20260503223336 | 78 | 135 | 4.0 | 8.0 | 0.00 | 0.00 | 0.00 | 43 | 1018.5 |
| 20260503222325 | 78 | 138 | 3.0 | 7.0 | 0.00 | 0.00 | 0.00 | 41 | 1018.7 |
| 20260503221333 | 78 | 123 | 2.0 | 4.0 | 0.00 | 0.00 | 0.00 | 43 | 1018.6 |
| 20260503220337 | 78 | 152 | 3.0 | 7.0 | 0.00 | 0.00 | 0.00 | 41 | 1019.0 |
| 20260503215325 | 79 | 154 | 2.0 | 5.0 | 0.00 | 0.00 | 0.00 | 45 | 1019.1 |
| 20260503214334 | 78 | 151 | 3.0 | 7.0 | 0.00 | 0.00 | 0.00 | 42 | 1019.0 |
| 20260503213336 | 78 | 142 | 2.0 | 5.0 | 0.00 | 0.00 | 0.00 | 44 | 1019.2 |
| 20260503212324 | 78 | 143 | 2.0 | 7.0 | 0.00 | 0.00 | 0.00 | 45 | 1019.3 |
| 20260503211355 | 78 | 140 | 1.0 | 10.0 | 0.00 | 0.00 | 0.00 | 42 | 1019.6 |
| 20260503210339 | 78 | 140 | 1.0 | 5.0 | 0.00 | 0.00 | 0.00 | 44 | 1019.6 |
| 20260503205326 | 78 | 223 | 2.0 | 12.0 | 0.00 | 0.00 | 0.00 | 41 | 1019.9 |
| 20260503204332 | 78 | 197 | 1.0 | 10.0 | 0.00 | 0.00 | 0.00 | 42 | 1020.1 |
| 20260503203336 | 78 | 82 | 3.0 | 8.0 | 0.00 | 0.00 | 0.00 | 47 | 1020.2 |
| 20260503202402 | 78 | 167 | 2.0 | 7.0 | 0.00 | 0.00 | 0.00 | 45 | 1020.4 |
| 20260503201327 | 78 | 133 | 3.0 | 8.0 | 0.00 | 0.00 | 0.00 | 43 | 1020.5 |
| 20260503200331 | 78 | 141 | 2.0 | 8.0 | 0.00 | 0.00 | 0.00 | 43 | 1020.7 |
| 20260503195403 | 78 | 140 | 3.0 | 8.0 | 0.00 | 0.00 | 0.00 | 46 | 1020.9 |
| 20260503194329 | 78 | 203 | 1.0 | 3.0 | 0.00 | 0.00 | 0.00 | 44 | 1021.0 |
| 20260503193351 | 77 | 119 | 1.0 | 4.0 | 0.00 | 0.00 | 0.00 | 43 | 1021.2 |
| 20260503192356 | 77 | 190 | 1.0 | 9.0 | 0.00 | 0.00 | 0.00 | 45 | 1021.3 |
| 20260503191341 | 78 | 201 | 2.0 | 7.0 | 0.00 | 0.00 | 0.00 | 45 | 1021.5 |
| 20260503190326 | 78 | 155 | 2.0 | 5.0 | 0.00 | 0.00 | 0.00 | 46 | 1021.6 |
| 20260503185352 | 77 | 130 | 2.0 | 7.0 | 0.00 | 0.00 | 0.00 | 46 | 1021.9 |
| 20260503184338 | 77 | 78 | 3.0 | 5.0 | 0.00 | 0.00 | 0.00 | 49 | 1021.9 |
| 20260503183342 | 77 | 196 | 1.0 | 7.0 | 0.00 | 0.00 | 0.00 | 44 | 1022.1 |
| 20260503182332 | 77 | 135 | 4.0 | 7.0 | 0.00 | 0.00 | 0.00 | 49 | 1022.2 |
| 20260503181359 | 77 | 142 | 2.0 | 8.0 | 0.00 | 0.00 | 0.00 | 46 | 1022.4 |
| 20260503180343 | 77 | 129 | 2.0 | 6.0 | 0.00 | 0.00 | 0.00 | 45 | 1022.5 |
| 20260503175330 | 76 | 132 | 1.0 | 8.0 | 0.00 | 0.00 | 0.00 | 47 | 1022.7 |
| 20260503174337 | 77 | 174 | 2.0 | 5.0 | 0.00 | 0.00 | 0.00 | 48 | 1022.9 |
| 20260503173341 | 76 | 201 | 1.0 | 6.0 | 0.00 | 0.00 | 0.00 | 48 | 1023.0 |
| 20260503172330 | 76 | 174 | 2.0 | 6.0 | 0.00 | 0.00 | 0.00 | 47 | 1023.2 |
| 20260503171339 | 76 | 177 | 1.0 | 4.0 | 0.00 | 0.00 | 0.00 | 48 | 1023.3 |
| 20260503170342 | 76 | 213 | 1.0 | 6.0 | 0.00 | 0.00 | 0.00 | 51 | 1023.4 |
| 20260503150335 | 72 | 148 | 0.0 | 4.0 | 0.00 | 0.00 | 0.00 | 58 | 1023.4 |
| 20260503131340 | 59 | 277 | 0.0 | 0.0 | 0.00 | 0.00 | 0.00 | 94 | 1022.7 |
| 20260503130327 | 58 | 327 | 0.0 | 0.0 | 0.00 | 0.00 | 0.00 | 94 | 1022.6 |
| 20260503110326 | 55 | 327 | 0.0 | 0.0 | 0.00 | 0.00 | 0.00 | 93 | 1022.0 |
| 20260503090334 | 57 | 327 | 0.0 | 1.0 | 0.00 | 0.00 | 0.00 | 93 | 1021.3 |
| 20260503081339 | 57 | 327 | 0.0 | 1.0 | 0.00 | 0.00 | 0.00 | 93 | 1021.4 |
| 20260503080324 | 57 | 325 | 0.0 | 2.0 | 0.00 | 0.00 | 0.00 | 93 | 1021.5 |
| 20260503072323 | 58 | 319 | 0.0 | 0.0 | 0.00 | 0.00 | 0.00 | 92 | 1021.6 |
| 20260503071330 | 58 | 319 | 0.0 | 0.0 | 0.00 | 0.00 | 0.00 | 92 | 1021.5 |
| 20260503070358 | 58 | 319 | 0.0 | 0.0 | 0.00 | 0.00 | 0.00 | 92 | 1021.6 |
| 20260503060326 | 59 | 319 | 0.0 | 0.0 | 0.00 | 0.00 | 0.00 | 91 | 1021.5 |
| 20260503054342 | 60 | 319 | 0.0 | 0.0 | 0.00 | 0.00 | 0.00 | 91 | 1021.6 |
| 20260503053329 | 59 | 319 | 0.0 | 0.0 | 0.00 | 0.00 | 0.00 | 91 | 1021.4 |
| 20260503052338 | 60 | 319 | 0.0 | 0.0 | 0.00 | 0.00 | 0.00 | 91 | 1021.5 |
| 20260503051326 | 60 | 319 | 0.0 | 0.0 | 0.00 | 0.00 | 0.00 | 91 | 1021.4 |
| 20260503050333 | 60 | 319 | 0.0 | 0.0 | 0.00 | 0.00 | 0.00 | 91 | 1021.3 |
| 20260503045341 | 60 | 319 | 0.0 | 0.0 | 0.00 | 0.00 | 0.00 | 91 | 1021.3 |
| 20260503044329 | 61 | 319 | 0.0 | 0.0 | 0.00 | 0.00 | 0.00 | 91 | 1021.3 |
| 20260503043337 | 61 | 319 | 0.0 | 0.0 | 0.00 | 0.00 | 0.00 | 90 | 1021.1 |
| 20260503042349 | 61 | 319 | 0.0 | 0.0 | 0.00 | 0.00 | 0.00 | 90 | 1021.2 |
| 20260503041333 | 61 | 319 | 0.0 | 0.0 | 0.00 | 0.00 | 0.00 | 90 | 1021.2 |
| 20260503040341 | 61 | 319 | 0.0 | 0.0 | 0.00 | 0.00 | 0.00 | 89 | 1021.0 |
| 20260503035329 | 61 | 319 | 0.0 | 0.0 | 0.00 | 0.00 | 0.00 | 89 | 1021.1 |
| 20260503034335 | 62 | 319 | 0.0 | 0.0 | 0.00 | 0.00 | 0.00 | 89 | 1021.2 |
| 20260503033341 | 62 | 319 | 0.0 | 0.0 | 0.00 | 0.00 | 0.00 | 89 | 1021.0 |
| 20260503032350 | 62 | 319 | 0.0 | 0.0 | 0.00 | 0.00 | 0.00 | 89 | 1020.8 |
| 20260503031336 | 62 | 319 | 0.0 | 0.0 | 0.00 | 0.00 | 0.00 | 88 | 1020.6 |
| 20260503030324 | 62 | 319 | 0.0 | 0.0 | 0.00 | 0.00 | 0.00 | 87 | 1020.6 |
| 20260503025332 | 63 | 319 | 0.0 | 0.0 | 0.00 | 0.00 | 0.00 | 86 | 1020.5 |
| 20260503024324 | 63 | 319 | 0.0 | 0.0 | 0.00 | 0.00 | 0.00 | 86 | 1020.4 |
| 20260503023331 | 63 | 319 | 0.0 | 0.0 | 0.00 | 0.00 | 0.00 | 85 | 1020.5 |
| 20260503022334 | 63 | 319 | 0.0 | 0.0 | 0.00 | 0.00 | 0.00 | 84 | 1020.4 |
| 20260503021401 | 64 | 319 | 0.0 | 0.0 | 0.00 | 0.00 | 0.00 | 83 | 1020.2 |